Location: Beekmeers
(50.8953°N, 3.6968°E)
Time: 06:22:52
(UTC+00:00)

SENTINEL 1B - Pass Details

Date: 19 October 2025
Orbit: 561 x 585 km, 98.1° (Epoch: 17 November)

Event Time Altitude Azimuth Distance (km) Brightness Sun altitude
Exits shadow 19:43:40 23° 350° (N) 1,264 7.2 -28.7°
Drops below altitude 10° 19:45:18 10° 348° (NNW) 1,920 8.2 -28.9°
Sets 19:47:28 0° 347° (NNW) 2,823 9.2 -29.3°
